FW6683 Weather Reports


time (UTC)temp
C
wind
direction
speed
KPH
gust
KPH
rain 1hr
cm
rain 24hr
cm
rain mn
cm
humidity
%
barometer
mb
20260508122501 13 97 1.6 9.7 0.00 0.00 0.00 74 1015.5
20260508122100 13 81 3.2 9.7 0.00 0.00 0.00 74 1015.4
20260508121600 13 360 1.6 9.7 0.00 0.00 0.00 76 1015.4
20260508121059 12 330 3.2 12.9 0.00 0.00 0.00 74 1015.3
20260508120558 12 359 1.6 9.7 0.00 0.00 0.00 76 1015.3
20260508120100 12 327 3.2 9.7 0.00 0.00 0.00 77 1015.3
20260508115558 12 48 1.6 9.7 0.00 0.00 0.00 77 1015.4
20260508115058 12 1 1.6 9.7 0.00 0.00 0.00 76 1015.3
20260508114603 12 2 3.2 9.7 0.00 0.00 0.00 77 1015.3
20260508114055 12 7 1.6 6.4 0.00 0.00 0.00 79 1015.4
20260508113556 12 348 0.0 6.4 0.00 0.00 0.00 80 1015.3
20260508113056 12 36 1.6 9.7 0.00 0.00 0.00 79 1015.3
20260508112559 12 91 3.2 11.3 0.00 0.00 0.00 79 1015.3
20260508112057 12 93 1.6 9.7 0.00 0.00 0.00 79 1015.3
20260508111556 12 85 1.6 6.4 0.00 0.00 0.00 80 1015.3
20260508111054 12 117 1.6 6.4 0.00 0.00 0.00 80 1015.3
20260508110553 12 39 0.0 11.3 0.00 0.00 0.00 80 1015.2
20260508110059 11 84 1.6 11.3 0.00 0.00 0.00 80 1015.1
20260508105557 11 67 1.6 11.3 0.00 0.00 0.00 79 1015.2
20260508105053 12 110 1.6 11.3 0.00 0.00 0.00 79 1015.1
20260508104553 12 103 1.6 6.4 0.00 0.00 0.00 79 1015.2
20260508104053 12 93 0.0 6.4 0.00 0.00 0.00 79 1015.2
20260508103551 12 34 0.0 4.8 0.00 0.00 0.00 78 1015.1
20260508103058 12 340 1.6 4.8 0.00 0.00 0.00 78 1015.1
20260508102551 12 360 0.0 3.2 0.00 0.00 0.00 77 1015.1
20260508102051 12 97 0.0 4.8 0.00 0.00 0.00 76 1015.1
20260508101551 12 97 0.0 4.8 0.00 0.00 0.00 76 1015.1
20260508101050 12 97 0.0 8.0 0.00 0.00 0.00 77 1015.1
20260508100550 12 100 1.6 9.7 0.00 0.00 0.00 76 1015.0
20260508100106 12 94 0.0 4.8 0.00 0.00 0.00 77 1015.0
20260508095549 12 58 0.0 11.3 0.00 0.00 0.00 77 1015.1
20260508095049 12 64 1.6 11.3 0.00 0.00 0.00 77 1015.0
20260508094602 12 113 0.0 8.0 0.00 0.00 0.00 77 1015.0
20260508094048 12 118 3.2 8.0 0.00 0.00 0.00 77 1015.0
20260508093548 12 116 1.6 8.0 0.00 0.00 0.00 77 1014.9
20260508093048 12 71 1.6 9.7 0.00 0.00 0.00 77 1014.8
20260508092553 12 98 3.2 9.7 0.00 0.00 0.00 77 1014.8
20260508092047 12 102 0.0 4.8 0.00 0.00 0.00 79 1014.7
20260508091548 12 45 0.0 4.8 0.00 0.00 0.00 80 1014.6
20260508091046 12 77 1.6 4.8 0.00 0.00 0.00 79 1014.7
20260508090546 12 122 0.0 9.7 0.00 0.00 0.00 79 1014.7
20260508090108 12 93 0.0 6.4 0.00 0.00 0.00 79 1014.8
20260508085546 12 30 1.6 8.0 0.00 0.00 0.00 77 1014.7
20260508085048 12 89 3.2 9.7 0.00 0.00 0.00 75 1014.8
20260508084547 12 54 3.2 9.7 0.00 0.00 0.00 74 1014.7
20260508084045 12 358 0.0 4.8 0.00 0.00 0.00 73 1014.7
20260508083544 12 31 1.6 8.0 0.00 0.00 0.00 72 1014.7
20260508083046 13 35 3.2 8.0 0.00 0.00 0.00 72 1014.7
20260508082545 13 12 1.6 6.4 0.00 0.00 0.00 72 1014.6
20260508082042 13 360 1.6 9.7 0.00 0.00 0.00 73 1014.6
20260508081558 13 96 4.8 11.3 0.00 0.00 0.00 73 1014.6
20260508081039 12 46 0.0 11.3 0.00 0.00 0.00 76 1014.5
20260508080538 12 106 3.2 8.0 0.00 0.00 0.00 75 1014.5
20260508080043 12 86 0.0 6.4 0.00 0.00 0.00 78 1014.5
20260508075537 11 359 1.6 6.4 0.00 0.00 0.00 79 1014.5
20260508075034 11 83 0.0 6.4 0.00 0.00 0.00 78 1014.4
20260508074533 11 91 0.0 3.2 0.00 0.00 0.00 80 1014.5
20260508074032 11 60 0.0 6.4 0.00 0.00 0.00 80 1014.4
20260508073531 11 86 1.6 8.0 0.00 0.00 0.00 80 1014.3
20260508073039 11 70 1.6 9.7 0.00 0.00 0.00 80 1014.2
20260508072530 11 93 4.8 9.7 0.00 0.00 0.00 80 1014.2
20260508072032 11 94 0.0 6.4 0.00 0.00 0.00 81 1014.2
20260508071530 11 62 0.0 6.4 0.00 0.00 0.00 81 1014.2
20260508071028 11 39 0.0 3.2 0.00 0.00 0.00 81 1014.2
20260508070528 11 44 0.0 4.8 0.00 0.00 0.00 81 1014.2
20260508070028 11 93 0.0 4.8 0.00 0.00 0.00 81 1014.2
20260508065528 11 86 0.0 6.4 0.00 0.00 0.00 81 1014.1
20260508065031 11 85 0.0 6.4 0.00 0.00 0.00 83 1014.1
20260508064527 10 143 0.0 1.6 0.00 0.00 0.00 85 1014.0
20260508064024 10 143 0.0 1.6 0.00 0.00 0.00 86 1014.0
20260508063525 10 143 0.0 3.2 0.00 0.00 0.00 87 1013.9
20260508063024 9 143 0.0 3.2 0.00 0.00 0.00 88 1013.9
20260508062521 9 148 0.0 0.0 0.00 0.00 0.00 89 1013.8
20260508062021 8 148 0.0 0.0 0.00 0.00 0.00 89 1013.7
20260508061524 8 148 0.0 0.0 0.00 0.00 0.00 89 1013.7
20260508061021 8 148 0.0 1.6 0.00 0.00 0.00 88 1013.7
20260508060518 8 148 0.0 3.2 0.00 0.00 0.00 89 1013.6
20260508060018 8 148 1.6 3.2 0.00 0.00 0.00 89 1013.6
20260508055516 8 281 0.0 0.0 0.00 0.00 0.00 90 1013.5
20260508055016 8 281 0.0 0.0 0.00 0.00 0.00 90 1013.4
20260508054516 8 281 0.0 0.0 0.00 0.00 0.00 90 1013.5
20260508054014 8 281 0.0 0.0 0.00 0.00 0.00 90 1013.5
20260508053513 7 281 0.0 0.0 0.00 0.00 0.00 90 1013.5
20260508053016 7 281 0.0 0.0 0.00 0.00 0.00 90 1013.5
20260508052511 7 281 0.0 0.0 0.00 0.00 0.00 90 1013.5
20260508052011 7 281 0.0 0.0 0.00 0.00 0.00 90 1013.4
20260508051510 7 281 0.0 0.0 0.00 0.00 0.00 90 1013.4
20260508051013 7 281 0.0 0.0 0.00 0.00 0.00 90 1013.4
20260508050507 7 281 0.0 0.0 0.00 0.00 0.00 90 1013.4
20260508050009 7 281 0.0 0.0 0.00 0.00 0.00 90 1013.4
20260508045510 7 281 0.0 0.0 0.00 0.00 0.00 90 1013.4
20260508045005 7 281 0.0 0.0 0.00 0.00 0.00 90 1013.4
20260508044505 7 281 0.0 0.0 0.00 0.00 0.00 90 1013.4
20260508044004 7 281 0.0 0.0 0.00 0.00 0.00 90 1013.3
20260508043503 7 281 0.0 0.0 0.00 0.00 0.00 90 1013.4
20260508043004 7 281 0.0 0.0 0.00 0.00 0.00 90 1013.3
20260508042504 7 281 0.0 0.0 0.00 0.00 0.00 90 1013.3
20260508042003 7 281 0.0 0.0 0.00 0.00 0.00 90 1013.2
20260508041503 7 281 0.0 0.0 0.00 0.00 0.00 90 1013.2
20260508041002 7 281 0.0 0.0 0.00 0.00 0.00 90 1013.2
20260508040501 7 281 0.0 0.0 0.00 0.00 0.00 90 1013.1
20260508040002 7 281 0.0 0.0 0.00 0.00 0.00 90 1013.1
20260508035501 7 281 0.0 1.6 0.00 0.00 0.00 90 1013.1
20260508035100 7 281 0.0 1.6 0.00 0.00 0.00 90 1013.0
20260508034600 7 281 0.0 0.0 0.00 0.00 0.00 90 1012.9
20260508034100 7 281 0.0 0.0 0.00 0.00 0.00 89 1012.9
20260508033557 7 281 0.0 0.0 0.00 0.00 0.00 89 1013.0
20260508033101 7 281 0.0 0.0 0.00 0.00 0.00 89 1012.9
20260508032559 7 281 0.0 0.0 0.00 0.00 0.00 89 1012.9
20260508032055 7 281 0.0 0.0 0.00 0.00 0.00 89 1013.0
20260508031559 7 281 0.0 0.0 0.00 0.00 0.00 88 1012.9
20260508031054 7 281 0.0 0.0 0.00 0.00 0.00 88 1012.9
20260508030554 7 281 0.0 0.0 0.00 0.00 0.00 88 1012.9
20260508025554 7 281 0.0 1.6 0.00 0.00 0.00 88 1012.9
20260508025051 7 281 0.0 1.6 0.00 0.00 0.00 88 1012.9
20260508024615 7 281 0.0 1.6 0.00 0.00 0.00 88 1012.8
20260508024053 7 281 0.0 0.0 0.00 0.00 0.00 88 1012.8
20260508023552 7 281 0.0 0.0 0.00 0.00 0.00 88 1012.8
20260508023050 7 281 0.0 0.0 0.00 0.00 0.00 88 1012.7
20260508022550 7 281 0.0 0.0 0.00 0.00 0.00 87 1012.8
20260508022050 7 281 0.0 0.0 0.00 0.00 0.00 87 1012.8
20260508021557 7 281 0.0 0.0 0.00 0.00 0.00 86 1012.7
20260508021048 8 281 0.0 0.0 0.00 0.00 0.00 86 1012.7
20260508020548 8 281 0.0 0.0 0.00 0.00 0.00 85 1012.8
20260508020053 8 281 0.0 0.0 0.00 0.00 0.00 85 1012.7
20260508015545 8 281 0.0 0.0 0.00 0.00 0.00 85 1012.6
20260508015044 8 281 0.0 0.0 0.00 0.00 0.00 84 1012.6
20260508014549 8 281 0.0 0.0 0.00 0.00 0.00 84 1012.6
20260508014043 9 281 0.0 0.0 0.00 0.00 0.00 84 1012.7
20260508013543 9 281 0.0 0.0 0.00 0.00 0.00 84 1012.6
20260508013041 9 281 0.0 0.0 0.00 0.00 0.00 84 1012.6
20260508012542 9 281 0.0 0.0 0.00 0.00 0.00 83 1012.6
20260508012039 9 281 0.0 0.0 0.00 0.00 0.00 83 1012.6
20260508011540 9 281 0.0 0.0 0.00 0.00 0.00 83 1012.6
20260508011038 10 281 0.0 1.6 0.00 0.00 0.00 82 1012.7
20260508010539 10 281 0.0 1.6 0.00 0.00 0.00 82 1012.7
20260508010049 10 280 0.0 0.0 0.00 0.00 0.00 82 1012.6
20260508005536 10 280 0.0 0.0 0.00 0.00 0.00 82 1012.6
20260508005036 10 280 0.0 0.0 0.00 0.00 0.00 81 1012.6
20260508004545 10 280 0.0 0.0 0.00 0.00 0.00 81 1012.6
20260508004035 10 280 0.0 3.2 0.00 0.00 0.00 81 1012.5
20260508003534 10 280 0.0 6.4 0.00 0.00 0.00 81 1012.6
20260508003034 10 279 0.0 8.0 0.00 0.00 0.00 81 1012.5
20260508002533 10 278 1.6 8.0 0.00 0.00 0.00 81 1012.6
20260508002033 10 271 0.0 4.8 0.00 0.00 0.00 81 1012.6
20260508001541 10 271 0.0 8.0 0.00 0.00 0.00 80 1012.7
20260508001032 10 127 0.0 8.0 0.00 0.00 0.00 80 1012.7
20260508000532 10 122 0.0 9.7 0.00 0.00 0.00 80 1012.6
20260508000031 10 120 0.0 11.3 0.00 0.00 0.00 80 1012.7
20260507235531 10 87 0.0 11.3 0.00 0.00 0.00 80 1012.7
20260507235029 10 149 0.0 4.8 0.00 0.00 0.00 80 1012.6
20260507234532 10 236 0.0 4.8 0.00 0.00 0.00 80 1012.5
20260507234027 10 292 0.0 4.8 0.00 0.00 0.00 80 1012.5
20260507233526 10 34 0.0 4.8 0.00 0.00 0.00 80 1012.5
20260507233026 10 82 0.0 4.8 0.00 0.00 0.00 79 1012.4
20260507232528 10 73 1.6 4.8 0.00 0.00 0.00 79 1012.3
20260507232024 10 61 0.0 3.2 0.00 0.00 0.00 79 1012.3
20260507231524 10 61 0.0 6.4 0.00 0.00 0.00 79 1012.2
20260507231024 10 61 0.0 6.4 0.00 0.00 0.00 79 1012.2
20260507230523 10 86 0.0 3.2 0.00 0.00 0.00 79 1012.3
20260507230023 10 86 0.0 4.8 0.00 0.00 0.00 79 1012.3
20260507225522 10 86 1.6 4.8 0.00 0.00 0.00 79 1012.2
20260507225024 10 44 0.0 3.2 0.00 0.00 0.00 79 1012.2
20260507224523 10 44 0.0 4.8 0.00 0.00 0.00 79 1012.1
20260507224021 10 20 0.0 4.8 0.00 0.00 0.00 79 1012.1
20260507223521 10 101 1.6 4.8 0.00 0.00 0.00 79 1012.2
20260507223021 10 102 0.0 9.7 0.00 0.00 0.00 78 1012.1
20260507222522 10 96 4.8 9.7 0.00 0.00 0.00 79 1012.1
20260507222023 10 93 0.0 6.4 0.00 0.00 0.00 79 1012.0
20260507221521 10 104 0.0 8.0 0.00 0.00 0.00 79 1012.0
20260507221025 10 309 1.6 9.7 0.00 0.00 0.00 79 1011.9
20260507220522 11 320 1.6 9.7 0.00 0.00 0.00 79 1011.8
20260507220021 11 39 0.0 9.7 0.00 0.00 0.00 79 1011.8
20260507215520 11 282 0.0 6.4 0.00 0.00 0.00 79 1011.7
20260507215020 11 271 1.6 6.4 0.00 0.00 0.00 78 1011.7
20260507214520 11 221 0.0 9.7 0.00 0.00 0.00 78 1011.6
20260507214019 11 255 1.6 9.7 0.00 0.00 0.00 79 1011.6
20260507213520 11 249 1.6 6.4 0.00 0.00 0.00 79 1011.6
20260507213027 11 262 0.0 3.2 0.00 0.00 0.00 79 1011.5
20260507212519 11 255 0.0 4.8 0.00 0.00 0.00 79 1011.5
20260507212021 11 279 0.0 8.0 0.00 0.00 0.00 79 1011.5
20260507211520 11 165 1.6 9.7 0.00 0.00 0.00 79 1011.5
20260507211022 11 325 0.0 9.7 0.00 0.00 0.00 79 1011.5
20260507210522 11 314 0.0 6.4 0.00 0.00 0.00 78 1011.3
20260507210019 11 307 0.0 9.7 0.00 0.00 0.00 78 1011.3
20260507205518 11 261 0.0 4.8 0.00 0.00 0.00 78 1011.3
20260507205018 11 147 0.0 9.7 0.00 0.00 0.00 78 1011.2
20260507204517 11 295 0.0 9.7 0.00 0.00 0.00 78 1011.3
20260507204017 11 207 3.2 8.0 0.00 0.00 0.00 78 1011.2
20260507203520 11 283 1.6 11.3 0.00 0.00 0.00 77 1011.1
20260507203036 11 281 1.6 11.3 0.00 0.00 0.00 77 1011.1
20260507202520 11 270 1.6 8.0 0.00 0.00 0.00 76 1011.1
20260507202016 11 320 1.6 8.0 0.00 0.00 0.00 76 1011.1
20260507201517 11 273 0.0 3.2 0.00 0.00 0.00 76 1011.0
20260507201017 11 333 0.0 4.8 0.00 0.00 0.00 75 1011.0
20260507200519 11 333 0.0 6.4 0.00 0.00 0.00 75 1011.0
20260507200017 11 293 0.0 8.0 0.00 0.00 0.00 75 1011.0
20260507195516 11 203 0.0 6.4 0.00 0.00 0.00 75 1011.0
20260507195016 12 217 0.0 4.8 0.00 0.00 0.00 75 1011.0
20260507194522 12 240 0.0 4.8 0.00 0.00 0.00 75 1011.0
20260507194017 12 295 0.0 4.8 0.00 0.00 0.00 74 1010.9
20260507193515 12 241 0.0 6.4 0.00 0.00 0.00 74 1010.9
20260507193018 12 228 0.0 8.0 0.00 0.00 0.00 74 1010.9
20260507192516 12 304 1.6 8.0 0.00 0.00 0.00 73 1010.8
20260507192015 12 232 0.0 4.8 0.00 0.00 0.00 73 1010.8
20260507191519 12 232 0.0 4.8 0.00 0.00 0.00 72 1010.8
20260507191017 12 297 0.0 4.8 0.00 0.00 0.00 72 1010.8
20260507190514 12 195 0.0 4.8 0.00 0.00 0.00 72 1010.8
20260507190015 12 186 0.0 3.2 0.00 0.00 0.00 72 1010.7
20260507185513 12 257 0.0 6.4 0.00 0.00 0.00 72 1010.6
20260507185013 13 181 1.6 6.4 0.00 0.00 0.00 71 1010.7
20260507184520 13 308 0.0 8.0 0.00 0.00 0.00 71 1010.5
20260507184013 13 316 0.0 8.0 0.00 0.00 0.00 70 1010.5
20260507183512 13 240 0.0 8.0 0.00 0.00 0.00 70 1010.5
20260507183014 13 293 0.0 8.0 0.00 0.00 0.00 69 1010.4
20260507182514 13 275 1.6 8.0 0.00 0.00 0.00 69 1010.4
20260507182013 13 269 0.0 9.7 0.00 0.00 0.00 68 1010.5
20260507181512 13 295 1.6 9.7 0.00 0.00 0.00 67 1010.4
20260507181018 13 306 0.0 4.8 0.00 0.00 0.00 67 1010.5
20260507180512 13 281 0.0 6.4 0.00 0.00 0.00 67 1010.4
20260507180017 13 281 0.0 6.4 0.00 0.00 0.00 67 1010.4
20260507175511 13 285 0.0 9.7 0.00 0.00 0.00 66 1010.4
20260507175014 13 300 3.2 9.7 0.00 0.00 0.00 66 1010.4
20260507174516 13 271 0.0 4.8 0.00 0.00 0.00 66 1010.4
20260507174015 13 287 0.0 6.4 0.00 0.00 0.00 66 1010.3
20260507173512 13 315 1.6 6.4 0.00 0.00 0.00 65 1010.4
20260507173018 13 236 0.0 6.4 0.00 0.00 0.00 65 1010.3
20260507172512 13 321 0.0 6.4 0.00 0.00 0.00 65 1010.3
20260507172009 13 139 0.0 4.8 0.00 0.00 0.00 64 1010.3
20260507171513 13 109 0.0 4.8 0.00 0.00 0.00 65 1010.3
20260507171009 13 141 0.0 4.8 0.00 0.00 0.00 66 1010.4
20260507170510 13 93 0.0 6.4 0.00 0.00 0.00 67 1010.4
20260507170009 13 272 1.6 6.4 0.00 0.00 0.00 70 1010.3
20260507165509 13 139 0.0 3.2 0.00 0.00 0.00 72 1010.4
20260507165009 13 160 0.0 3.2 0.00 0.00 0.00 74 1010.4
20260507164509 13 148 0.0 16.1 0.00 0.00 0.00 72 1010.4
20260507164008 13 151 1.6 12.9 0.00 0.00 0.00 72 1010.4
20260507163512 13 101 0.0 8.0 0.00 0.00 0.00 72 1010.4
20260507163007 14 186 1.6 8.0 0.00 0.00 0.00 72 1010.4
20260507162515 14 113 0.0 8.0 0.00 0.00 0.00 72 1010.4
20260507162008 14 137 0.0 9.7 0.00 0.00 0.00 72 1010.4
20260507161509 14 172 1.6 11.3 0.00 0.00 0.00 71 1010.4
20260507161007 14 141 3.2 9.7 0.00 0.00 0.00 70 1010.4
20260507160507 14 191 1.6 9.7 0.00 0.00 0.00 67 1010.3
20260507160009 14 142 3.2 11.3 0.00 0.00 0.00 63 1010.3
20260507155508 15 99 0.0 11.3 0.00 0.00 0.00 64 1010.4
20260507155009 15 93 3.2 9.7 0.00 0.00 0.00 63 1010.4
20260507154506 15 156 1.6 4.8 0.00 0.00 0.00 63 1010.3
20260507154009 15 88 1.6 4.8 0.00 0.00 0.00 61 1010.3
20260507153505 15 282 0.0 3.2 0.00 0.00 0.00 61 1010.4
20260507153006 15 130 0.0 4.8 0.00 0.00 0.00 61 1010.4
20260507152504 15 225 0.0 4.8 0.00 0.00 0.00 61 1010.5
20260507152008 15 155 0.0 8.0 0.00 0.00 0.00 60 1010.4
20260507151504 15 186 1.6 8.0 0.00 0.00 0.00 59 1010.4
20260507151005 15 169 1.6 4.8 0.00 0.00 0.00 58 1010.4
20260507150505 15 268 0.0 4.8 0.00 0.00 0.00 58 1010.5
20260507150004 15 3 1.6 4.8 0.00 0.00 0.00 59 1010.5
20260507145503 15 173 0.0 4.8 0.00 0.00 0.00 59 1010.5
20260507145005 15 269 0.0 4.8 0.00 0.00 0.00 60 1010.5
20260507144502 15 275 0.0 8.0 0.00 0.00 0.00 62 1010.5
20260507144002 15 270 0.0 8.0 0.00 0.00 0.00 61 1010.6
20260507143503 15 113 0.0 11.3 0.00 0.00 0.00 60 1010.6
20260507143001 15 167 1.6 11.3 0.00 0.00 0.00 58 1010.6
20260507142501 15 109 3.2 6.4 0.00 0.00 0.00 60 1010.6
20260507142000 15 176 0.0 9.7 0.00 0.00 0.00 62 1010.7
20260507141612 15 227 1.6 9.7 0.00 0.00 0.00 61 1010.7
20260507141100 15 165 0.0 4.8 0.00 0.00 0.00 61 1010.7
20260507140559 15 231 0.0 4.8 0.00 0.00 0.00 61 1010.7
20260507140106 15 308 1.6 4.8 0.00 0.00 0.00 62 1010.7
20260507135604 15 238 1.6 4.8 0.00 0.00 0.00 62 1010.8
20260507135101 14 181 1.6 6.4 0.00 0.00 0.00 60 1010.7
20260507134559 15 273 0.0 6.4 0.00 0.00 0.00 61 1010.8
20260507134059 15 176 0.0 4.8 0.00 0.00 0.00 59 1010.8
20260507133559 15 203 0.0 4.8 0.00 0.00 0.00 59 1010.8
20260507133147 15 290 0.0 8.0 0.00 0.00 0.00 58 1010.8
20260507132557 15 238 1.6 9.7 0.00 0.00 0.00 57 1010.8
20260507132058 15 323 3.2 9.7 0.00 0.00 0.00 57 1010.7
20260507131559 15 188 1.6 6.4 0.00 0.00 0.00 57 1010.8
20260507131058 15 200 1.6 14.5 0.00 0.00 0.00 56 1010.7
20260507130559 16 311 1.6 6.4 0.00 0.00 0.00 55 1010.7
20260507130105 16 155 1.6 8.0 0.00 0.00 0.00 54 1010.8
20260507125557 16 217 3.2 8.0 0.00 0.00 0.00 54 1010.9
20260507125059 16 293 1.6 8.0 0.00 0.00 0.00 55 1010.8
20260507124605 16 278 1.6 8.0 0.00 0.00 0.00 54 1010.9
20260507124053 15 276 0.0 8.0 0.00 0.00 0.00 54 1010.8
20260507123552 15 140 1.6 8.0 0.00 0.00 0.00 57 1010.9
20260507123052 15 125 0.0 9.7 0.00 0.00 0.00 57 1010.9